"Pseudo-MPEC" for P10QoIW

Created 2019 Aug 14 21:07:10 UT using Find_Orb

Click here for an explanation of pseudo-MPECs

 
 Astrometry: 
     P10QoIW  C2019 08 08gINvkh,B`'^VE2o+K2-a1Astrometry+kfl+hredacted;=Um4vbF51
     P10QoIW  C2019 08 08ra+$*k+clickh+TKj]xAH]24)hereqFLJ4HfQtN\S2forM8T)w/TF51
     P10QoIW  C2019 08 08hik@d9WPN`H*`NexplanationTuQuLKI.$[5=is:xM\A?V+23\`sF51

Station data:
(F51) Pan-STARRS 1, Haleakala  (N20.707235 W156.255910)  US/Hawaii.
   Observers N. Primak, A. Schultz, S. Watters, J. Thiel, T. Goggia. Measurer
   PS1 Science Consortium. 1.8-m Ritchey-Chrétien + CCD.

Orbital elements:  P10QoIW
   Perihelion 2019 May 12.037506 +/- 49.4 TT =  0:54:00 (JD 2458615.537506)
Epoch 2019 Aug  9.0 TT = JDT 2458704.5   Earth MOID: 0.1088   AutoNEOCP
M  72.74175999 +/- 100              (J2000 ecliptic)
n   0.81766771 +/- 0.633            Peri.  276.62113 +/- 110
a   1.13262153 +/- 0.584            Node   327.37752 +/- 23
e   0.0515530 +/- 0.262             Incl.   17.79922 +/- 35
P   1.21/440.27d           H 24.0   G  0.15   U 12.4  SR
q 1.07423143 +/- 0.434    Q 1.19101163 +/- 20.4
From 3 observations 2019 Aug. 8 (50.7 min); mean residual 0".07
Residuals in arcseconds: 
190808 F51  .05+  .08+    190808 F51  .07-  .12-    190808 F51  .02+  .04+    

Ephemerides (geocentric):
Date (UTC) HH   RA              Dec         delta   r     elong  mag " sig PA
---- -- -- --  -------------   -----------  ------ ------ -----  --- ---- ---
2019 08 14 21  00 34 09.283   +03 41 12.84  .15491 1.1229 132.2 21.9  67d   5
2019 08 14 22  00 34 00.122   +03 45 14.63  .15485 1.1230 132.3 21.9  67d   4
2019 08 14 23  00 33 50.944   +03 49 16.56  .15479 1.1230 132.3 21.9  67d   4
2019 08 15 00  00 33 41.750   +03 53 18.63  .15473 1.1230 132.4 21.9  67d   4
2019 08 15 01  00 33 32.539   +03 57 20.82  .15466 1.1231 132.4 21.9  67d   4
2019 08 15 02  00 33 23.311   +04 01 23.15  .15460 1.1231 132.5 21.9  67d   4
2019 08 15 03  00 33 14.067   +04 05 25.61  .15454 1.1231 132.5 21.9  67d   4
2019 08 15 04  00 33 04.807   +04 09 28.19  .15449 1.1232 132.6 21.9  67d   4
2019 08 15 05  00 32 55.530   +04 13 30.90  .15443 1.1232 132.6 21.9  67d   4
2019 08 15 06  00 32 46.236   +04 17 33.74  .15437 1.1233 132.7 21.9  68d   4
2019 08 15 07  00 32 36.926   +04 21 36.71  .15431 1.1233 132.7 21.9  68d   4
2019 08 15 08  00 32 27.599   +04 25 39.80  .15425 1.1233 132.8 21.9  68d   4
2019 08 15 09  00 32 18.256   +04 29 43.01  .15419 1.1234 132.8 21.8  68d   4
2019 08 15 10  00 32 08.896   +04 33 46.35  .15414 1.1234 132.9 21.8  68d   4
2019 08 15 11  00 31 59.519   +04 37 49.81  .15408 1.1234 132.9 21.8  68d   4
2019 08 15 12  00 31 50.126   +04 41 53.38  .15402 1.1235 132.9 21.8  68d   4
2019 08 15 13  00 31 40.716   +04 45 57.08  .15396 1.1235 133.0 21.8  68d   4
2019 08 15 14  00 31 31.290   +04 50 00.89  .15391 1.1235 133.0 21.8  68d   4
2019 08 15 15  00 31 21.847   +04 54 04.82  .15385 1.1236 133.1 21.8  68d   4
2019 08 15 16  00 31 12.387   +04 58 08.87  .15380 1.1236 133.1 21.8  69d   4
2019 08 15 17  00 31 02.911   +05 02 13.03  .15374 1.1236 133.2 21.8  69d   4
2019 08 15 18  00 30 53.418   +05 06 17.30  .15369 1.1237 133.2 21.8  69d   4
2019 08 15 19  00 30 43.908   +05 10 21.69  .15363 1.1237 133.3 21.8  69d   4
2019 08 15 20  00 30 34.382   +05 14 26.18  .15358 1.1237 133.3 21.8  69d   4
2019 08 15 21  00 30 24.840   +05 18 30.79  .15352 1.1238 133.4 21.8  69d   4
2019 08 15 22  00 30 15.280   +05 22 35.50  .15347 1.1238 133.4 21.8  69d   4
2019 08 15 23  00 30 05.705   +05 26 40.32  .15342 1.1238 133.5 21.8  69d   4
2019 08 16 00  00 29 56.112   +05 30 45.24  .15336 1.1239 133.5 21.8  69d   4
2019 08 16 01  00 29 46.503   +05 34 50.27  .15331 1.1239 133.6 21.8  69d   4
2019 08 16 02  00 29 36.877   +05 38 55.41  .15326 1.1239 133.6 21.8  69d   4
2019 08 16 03  00 29 27.235   +05 43 00.64  .15321 1.1240 133.7 21.8  69d   4
2019 08 16 04  00 29 17.576   +05 47 05.98  .15316 1.1240 133.7 21.8  69d   4
2019 08 16 05  00 29 07.900   +05 51 11.41  .15310 1.1240 133.8 21.8  69d   4
2019 08 16 06  00 28 58.207   +05 55 16.95  .15305 1.1241 133.8 21.8  69d   4
2019 08 16 07  00 28 48.499   +05 59 22.58  .15300 1.1241 133.8 21.8  69d   4
2019 08 16 08  00 28 38.773   +06 03 28.31  .15295 1.1242 133.9 21.8  69d   4
2019 08 16 09  00 28 29.031   +06 07 34.13  .15290 1.1242 133.9 21.8  69d   4
2019 08 16 10  00 28 19.272   +06 11 40.04  .15285 1.1242 134.0 21.8  69d   4
2019 08 16 11  00 28 09.496   +06 15 46.05  .15280 1.1243 134.0 21.8  69d   3
2019 08 16 12  00 27 59.704   +06 19 52.15  .15275 1.1243 134.1 21.8  69d   3
2019 08 16 13  00 27 49.896   +06 23 58.33  .15270 1.1243 134.1 21.8  69d   3
2019 08 16 14  00 27 40.070   +06 28 04.61  .15266 1.1244 134.2 21.8  70d   3
2019 08 16 15  00 27 30.228   +06 32 10.97  .15261 1.1244 134.2 21.8  70d   3
2019 08 16 16  00 27 20.370   +06 36 17.42  .15256 1.1244 134.3 21.8  70d   3
2019 08 16 17  00 27 10.494   +06 40 23.95  .15251 1.1245 134.3 21.8  70d   3
2019 08 16 18  00 27 00.602   +06 44 30.56  .15247 1.1245 134.3 21.8  70d   3
2019 08 16 19  00 26 50.694   +06 48 37.26  .15242 1.1245 134.4 21.8  70d   3
2019 08 16 20  00 26 40.769   +06 52 44.04  .15237 1.1246 134.4 21.8  70d   3